Stündliche Wetter Labrador City

Heute, 10 Mai, Montag

Zeit Temperatur Niederschläge Wind Luftdruck Luftfeuchtigkeit
00:00 -3°C° 0 mm 4 m/S 706 mmHg 90%
01:00 -3°C° 0 mm 4 m/S 706 mmHg 89%
02:00 -3°C° 0 mm 4 m/S 706 mmHg 89%
03:00 -4°C° 0 mm 4 m/S 706 mmHg 90%
04:00 -4°C° 0 mm 4 m/S 706 mmHg 90%
05:00 -4°C° 0 mm 4 m/S 706 mmHg 90%
06:00 -4°C° 0 mm 4 m/S 706 mmHg 84%
07:00 -3°C° 0 mm 4 m/S 706 mmHg 78%
08:00 -2°C° 0 mm 5 m/S 707 mmHg 72%
09:00 -2°C° 0 mm 5 m/S 707 mmHg 70%
10:00 -1°C° 0 mm 5 m/S 707 mmHg 68%
11:00 -1°C° 0 mm 4 m/S 707 mmHg 66%
12:00 0°C° 0 mm 5 m/S 707 mmHg 64%
13:00 0°C° 0 mm 5 m/S 707 mmHg 62%
14:00 +1°C° 0 mm 5 m/S 707 mmHg 60%
15:00 +1°C° 0 mm 5 m/S 707 mmHg 60%
16:00 +1°C° 0 mm 5 m/S 707 mmHg 61%
17:00 +1°C° 0 mm 5 m/S 707 mmHg 62%
18:00 0°C° 0 mm 4 m/S 708 mmHg 68%
19:00 0°C° 0 mm 3 m/S 708 mmHg 74%
20:00 -1°C° 0 mm 2 m/S 708 mmHg 80%
21:00 -1°C° 0 mm 2 m/S 708 mmHg 82%
22:00 -1°C° 0 mm 2 m/S 708 mmHg 84%
23:00 -2°C° 0 mm 2 m/S 708 mmHg 87%

Morgen, 11 Mai, Dienstag

Zeit Temperatur Niederschläge Wind Luftdruck Luftfeuchtigkeit
00:00 -2°C° 0 mm 2 m/S 708 mmHg 88%
01:00 -2°C° 0 mm 2 m/S 708 mmHg 89%
02:00 -3°C° 0 mm 2 m/S 708 mmHg 90%
03:00 -3°C° 0 mm 2 m/S 708 mmHg 90%
04:00 -3°C° 0 mm 2 m/S 708 mmHg 90%
05:00 -4°C° 0 mm 3 m/S 708 mmHg 91%
06:00 -2°C° 0 mm 3 m/S 708 mmHg 88%
07:00 -3°C° 0 mm 4 m/S 708 mmHg 85%
08:00 -2°C° 0 mm 5 m/S 708 mmHg 82%
09:00 -2°C° 0.1 mm 5 m/S 708 mmHg 84%
10:00 -1°C° 0.1 mm 4 m/S 708 mmHg 86%
11:00 -1°C° 0.1 mm 4 m/S 708 mmHg 88%
12:00 -1°C° 0.4 mm 4 m/S 708 mmHg 89%
13:00 -1°C° 0.4 mm 4 m/S 708 mmHg 91%
14:00 0°C° 0.4 mm 4 m/S 708 mmHg 92%
15:00 0°C° 0.3 mm 4 m/S 708 mmHg 93%
16:00 -1°C° 0.3 mm 4 m/S 708 mmHg 93%
17:00 -1°C° 0.3 mm 4 m/S 708 mmHg 93%
18:00 -1°C° 0.2 mm 4 m/S 708 mmHg 95%
19:00 -2°C° 0.2 mm 4 m/S 708 mmHg 96%
20:00 -1°C° 0.2 mm 3 m/S 708 mmHg 97%
21:00 -1°C° 0.1 mm 3 m/S 708 mmHg 97%
22:00 -1°C° 0.1 mm 3 m/S 709 mmHg 96%
23:00 -1°C° 0.1 mm 3 m/S 709 mmHg 95%

übermorgen, 12 Mai, Mittwoch

Zeit Temperatur Niederschläge Wind Luftdruck Luftfeuchtigkeit
00:00 -1°C° 0.1 mm 3 m/S 709 mmHg 94%
01:00 -2°C° 0.1 mm 3 m/S 708 mmHg 92%
02:00 -2°C° 0.1 mm 3 m/S 708 mmHg 91%
03:00 -2°C° 0 mm 3 m/S 708 mmHg 91%
04:00 -2°C° 0 mm 3 m/S 708 mmHg 92%
05:00 -4°C° 0 mm 3 m/S 709 mmHg 92%
06:00 -2°C° 0 mm 3 m/S 709 mmHg 87%
07:00 -2°C° 0 mm 4 m/S 709 mmHg 82%
08:00 -2°C° 0 mm 4 m/S 709 mmHg 76%
09:00 -1°C° 0 mm 4 m/S 709 mmHg 72%
10:00 0°C° 0 mm 4 m/S 709 mmHg 67%
11:00 +1°C° 0 mm 5 m/S 709 mmHg 62%
12:00 +2°C° 0 mm 5 m/S 709 mmHg 59%
13:00 +2°C° 0 mm 5 m/S 709 mmHg 56%
14:00 +3°C° 0 mm 5 m/S 709 mmHg 54%
15:00 +3°C° 0 mm 5 m/S 709 mmHg 55%
16:00 +4°C° 0 mm 4 m/S 709 mmHg 57%
17:00 +3°C° 0 mm 4 m/S 709 mmHg 59%
18:00 +3°C° 0 mm 4 m/S 709 mmHg 65%
19:00 +1°C° 0 mm 4 m/S 709 mmHg 71%
20:00 +1°C° 0 mm 3 m/S 709 mmHg 78%
21:00 0°C° 0 mm 3 m/S 709 mmHg 81%
22:00 -1°C° 0 mm 2 m/S 708 mmHg 85%
23:00 +1°C° 0 mm 1 m/S 708 mmHg 89%

13 Mai, Donnerstag

Zeit Temperatur Niederschläge Wind Luftdruck Luftfeuchtigkeit
00:00 +1°C° 0 mm 1 m/S 708 mmHg 90%
01:00 +1°C° 0 mm 1 m/S 708 mmHg 90%
02:00 +1°C° 0 mm 1 m/S 708 mmHg 91%
03:00 +1°C° 0 mm 1 m/S 707 mmHg 91%
04:00 0°C° 0 mm 1 m/S 707 mmHg 91%
05:00 0°C° 0 mm 1 m/S 707 mmHg 90%
06:00 +2°C° 0 mm 1 m/S 707 mmHg 82%
07:00 +2°C° 0 mm 2 m/S 707 mmHg 74%
08:00 +3°C° 0 mm 2 m/S 707 mmHg 65%
09:00 +3°C° 0 mm 3 m/S 707 mmHg 60%
10:00 +4°C° 0 mm 3 m/S 707 mmHg 55%
11:00 +6°C° 0 mm 4 m/S 707 mmHg 50%
12:00 +6°C° 0 mm 4 m/S 706 mmHg 48%
13:00 +6°C° 0 mm 4 m/S 706 mmHg 47%
14:00 +7°C° 0 mm 5 m/S 706 mmHg 45%
15:00 +7°C° 0 mm 5 m/S 706 mmHg 46%
16:00 +7°C° 0 mm 5 m/S 706 mmHg 47%
17:00 +7°C° 0 mm 5 m/S 706 mmHg 47%
18:00 +6°C° 0.1 mm 5 m/S 706 mmHg 58%
19:00 +3°C° 0.1 mm 5 m/S 707 mmHg 68%
20:00 +2°C° 0.1 mm 5 m/S 707 mmHg 78%
21:00 +2°C° 0 mm 5 m/S 707 mmHg 79%
22:00 +1°C° 0 mm 5 m/S 707 mmHg 80%
23:00 +1°C° 0 mm 4 m/S 708 mmHg 81%

14 Mai, Freitag

Zeit Temperatur Niederschläge Wind Luftdruck Luftfeuchtigkeit
00:00 0°C° 0 mm 4 m/S 708 mmHg 82%
01:00 0°C° 0 mm 4 m/S 708 mmHg 83%
02:00 0°C° 0 mm 4 m/S 708 mmHg 84%
03:00 -1°C° 0 mm 4 m/S 708 mmHg 86%
04:00 -1°C° 0 mm 4 m/S 708 mmHg 89%
05:00 -1°C° 0 mm 4 m/S 709 mmHg 92%
06:00 -1°C° 0.1 mm 4 m/S 709 mmHg 91%
07:00 0°C° 0.1 mm 4 m/S 709 mmHg 90%
08:00 0°C° 0.1 mm 4 m/S 709 mmHg 89%
09:00 +1°C° 0.2 mm 5 m/S 710 mmHg 86%
10:00 +1°C° 0.2 mm 5 m/S 710 mmHg 83%
11:00 +1°C° 0.2 mm 5 m/S 710 mmHg 79%
12:00 +2°C° 0.2 mm 5 m/S 710 mmHg 76%
13:00 +3°C° 0.2 mm 5 m/S 710 mmHg 72%
14:00 +3°C° 0.2 mm 5 m/S 711 mmHg 69%
15:00 +3°C° 0.2 mm 5 m/S 711 mmHg 68%
16:00 +3°C° 0.2 mm 5 m/S 711 mmHg 68%
17:00 +3°C° 0.2 mm 5 m/S 711 mmHg 68%
18:00 +4°C° 0.2 mm 4 m/S 711 mmHg 70%
19:00 +3°C° 0.2 mm 3 m/S 711 mmHg 72%
20:00 +3°C° 0.2 mm 3 m/S 712 mmHg 74%
21:00 +2°C° 0 mm 3 m/S 712 mmHg 78%
22:00 +2°C° 0 mm 2 m/S 712 mmHg 82%
23:00 +1°C° 0 mm 2 m/S 712 mmHg 86%

15 Mai, Samstag

Zeit Temperatur Niederschläge Wind Luftdruck Luftfeuchtigkeit
00:00 +1°C° 0 mm 2 m/S 712 mmHg 88%
01:00 -1°C° 0 mm 2 m/S 712 mmHg 91%
02:00 -1°C° 0 mm 2 m/S 712 mmHg 93%
03:00 -1°C° 0 mm 2 m/S 713 mmHg 93%
04:00 -1°C° 0 mm 2 m/S 713 mmHg 92%
05:00 -1°C° 0 mm 2 m/S 713 mmHg 92%
06:00 +1°C° 0 mm 2 m/S 713 mmHg 87%
07:00 +1°C° 0 mm 3 m/S 714 mmHg 82%
08:00 +1°C° 0 mm 3 m/S 714 mmHg 77%
09:00 +2°C° 0.1 mm 3 m/S 714 mmHg 73%
10:00 +2°C° 0.1 mm 3 m/S 714 mmHg 70%
11:00 +3°C° 0.1 mm 3 m/S 714 mmHg 66%
12:00 +3°C° 0 mm 3 m/S 714 mmHg 63%
13:00 +5°C° 0 mm 2 m/S 714 mmHg 60%
14:00 +5°C° 0 mm 2 m/S 714 mmHg 57%
15:00 +5°C° 0 mm 2 m/S 714 mmHg 57%
16:00 +5°C° 0 mm 2 m/S 714 mmHg 58%
17:00 +5°C° 0 mm 2 m/S 714 mmHg 58%
18:00 +5°C° 0 mm 2 m/S 715 mmHg 62%
19:00 +4°C° 0 mm 2 m/S 715 mmHg 67%
20:00 +4°C° 0 mm 2 m/S 715 mmHg 71%
21:00 +4°C° 0 mm 1 m/S 715 mmHg 75%
22:00 +3°C° 0 mm 1 m/S 715 mmHg 80%
23:00 +2°C° 0 mm 1 m/S 715 mmHg 85%
Mehr zeigen

Wir brauchen deine Erlaubnis

Meteoprog und unser Service Anbieter werden persönliche Daten aufbewahren, so wie Cookies, Geräte Bezeichnung oder ähnliche Technologien von deinem Gerät und Prozess, so wie Persönliche Daten Inhalte und Werbungen, genauso wie social Media und den Verkehr zu analysieren.

  • Aufbewahrung und/oder Zugang zu deiner Geräte Informationen.

    Cookies, Geräte Bezeichnung oder andere Informationen, können aufbewahrt oder Zugang zu deinem Gerät erhalten, für den Grund, der oben angegeben wird.

  • Personalisierte Werbung und Inhalte, Messungen, Einblick in das Publikum und Produkt Entwicklung.

    Werbungen und Inhalte können personalisiert werden, basierend auf ein Profil. Mehr Daten können besser personalisierte Werbungen und Inhalte hinzufügen. Werbung und Inhalte können gezeigt und gemessen werden. Einblicke über das Publikum, welche die Werbung gesehen haben und den Inhalt, können abgeleitet werden. So wie Daten können genutzt werden, um es zu verbessern oder die Benutzer Erfahrung zu verbessern das System und die Software.

Wenn du “Ich stimme zu” klickst, erlaubst du uns, die Cookies zu benutzen die Geräte Bezeichnung, den Web oder ähnliche Technologien zu benutzen. Deine Settings, können in deinem Gerät bei deinem Browser geändert werden.

Für den bestimmten Zweck, berechtigten Interessen beruhen darauf, mehr als auf den Inhalt. Du kannst mehr darüber in unseren Privaten und Cookie Politik lesen.